Location: Bats
(43.6587°N, 0.4584°W)
Time: 08:36:01
(UTC+00:00)

SL-08 R/B - Pass Details

Date: 12 January 2026
Orbit: 950 x 1017 km, 82.9° (Epoch: 17 February)

Event Time Altitude Azimuth Distance (km) Brightness Sun altitude
Rises 19:05:56 0° 352° (N) 3,744 7.6 -24.5°
Reaches altitude 10° 19:08:28 10° 354° (N) 2,796 6.9 -25.0°
Maximum altitude 19:14:56 80° 82° (E) 1,035 4.4 -26.2°
Drops below altitude 10° 19:21:23 10° 169° (S) 2,794 6.8 -27.3°
Sets 19:23:55 0° 171° (S) 3,739 7.5 -27.8°
